QPF
0.01 0.02 0.04 0.04 0.02 0.01 0.01 0.00 0.00 0.00 0.00 0.00 0.01 0.00 0.00 0.00 0.00 0.00 0.00 0.00 0.00 0.00 0.00 0.00 0.00 0.00 0.01 0.01 0.01 0.01 0.00 0.00 0.00 0.00 0.00 0.01 0.01 0.01 0.01 0.01 0.00 0.00 0.00
0.01 0.02 0.03 0.03 0.03 0.02 0.01 0.01 0.00 0.00 0.00 0.00 0.01 0.01 0.00 0.01 0.01 0.01 0.01 0.01 0.01 0.00 0.00 0.00 0.00 0.00 0.00 0.00 0.00 0.00 0.00 0.00 0.00 0.00 0.00 0.00 0.00 0.00 0.00 0.00 0.00 0.00 0.00
0.01 0.02 0.02 0.03 0.03 0.03 0.02 0.01 0.01 0.00 0.00 0.00 0.01 0.00 0.00 0.00 0.01 0.01 0.01 0.01 0.01 0.01 0.00 0.01 0.01 0.01 0.01 0.00 0.00 0.00 0.00 0.00 0.00 0.00 0.00 0.00 0.00 0.00 0.00 0.00 0.00 0.01 0.01
0.01 0.01 0.01 0.02 0.03 0.02 0.02 0.02 0.01 0.01 0.00 0.00 0.00 0.00 0.00 0.00 0.00 0.01 0.01 0.01 0.01 0.00 0.00 0.01 0.01 0.02 0.01 0.00 0.00 0.00 0.00 0.00 0.00 0.00 0.00 0.00 0.00 0.00 0.00 0.00 0.01 0.01 0.01
0.01 0.01 0.01 0.01 0.02 0.02 0.02 0.02 0.01 0.01 0.01 0.01 0.01 0.01 0.01 0.00 0.00 0.00 0.01 0.01 0.01 0.01 0.00 0.00 0.01 0.01 0.00 0.00 0.00 0.00 0.00 0.00 0.00 0.00 0.00 0.00 0.00 0.00 0.00 0.00 0.00 0.00 0.00
0.01 0.01 0.01 0.01 0.01 0.02 0.02 0.02 0.02 0.01 0.00 0.00 0.01 0.01 0.00 0.00 0.00 0.00 0.00 0.00 0.00 0.01 0.01 0.00 0.00 0.00 0.00 0.00 0.00 0.00 0.00 0.00 0.00 0.00 0.00 0.00 0.00 0.00 0.01 0.00 0.00 0.00 0.00
0.01 0.02 0.01 0.01 0.01 0.02 0.02 0.03 0.02 0.02 0.01 0.01 0.01 0.01 0.01 0.02 0.01 0.00 0.00 0.00 0.00 0.00 0.00 0.00 0.00 0.00 0.01 0.00 0.00 0.01 0.00 0.00 0.00 0.00 0.00 0.00 0.00 0.00 0.01 0.00 0.00 0.00 0.00
0.02 0.02 0.02 0.02 0.01 0.02 0.03 0.03 0.03 0.02 0.02 0.02 0.01 0.01 0.01 0.01 0.02 0.01 0.00 0.00 0.00 0.00 0.00 0.01 0.01 0.00 0.01 0.01 0.01 0.01 0.01 0.00 0.00 0.00 0.00 0.00 0.00 0.01 0.01 0.01 0.01 0.00 0.00
0.01 0.02 0.03 0.03 0.02 0.02 0.03 0.03 0.03 0.03 0.02 0.02 0.01 0.01 0.01 0.01 0.01 0.01 0.00 0.00 0.00 0.00 0.00 0.00 0.00 0.00 0.00 0.00 0.01 0.01 0.00 0.00 0.00 0.00 0.00 0.00 0.00 0.01 0.01 0.01 0.01 0.00 0.01
0.03 0.02 0.02 0.03 0.03 0.02 0.02 0.03 0.02 0.03 0.03 0.02 0.01 0.01 0.01 0.01 0.01 0.00 0.00 0.00 0.00 0.00 0.00 0.00 0.00 0.00 0.00 0.00 0.00 0.00 0.00 0.00 0.00 0.00 0.00 0.00 0.00 0.01 0.02 0.01 0.01 0.01 0.01
0.03 0.03 0.03 0.04 0.04 0.03 0.02 0.02 0.02 0.02 0.03 0.03 0.02 0.02 0.01 0.02 0.02 0.01 0.00 0.00 0.00 0.00 0.00 0.00 0.00 0.00 0.00 0.00 0.00 0.00 0.00 0.00 0.00 0.00 0.00 0.00 0.00 0.01 0.02 0.02 0.02 0.02 0.02
0.03 0.03 0.04 0.04 0.05 0.05 0.03 0.04 0.03 0.02 0.02 0.03 0.03 0.02 0.01 0.01 0.01 0.01 0.01 0.00 0.00 0.00 0.00 0.00 0.00 0.00 0.00 0.00 0.00 0.00 0.00 0.00 0.00 0.00 0.00 0.00 0.01 0.02 0.02 0.03 0.03 0.02 0.02
0.04 0.03 0.03 0.03 0.04 0.05 0.05 0.04 0.05 0.03 0.02 0.03 0.03 0.03 0.01 0.01 0.01 0.01 0.01 0.01 0.00 0.00 0.00 0.00 0.00 0.00 0.00 0.00 0.00 0.00 0.00 0.00 0.00 0.00 0.00 0.01 0.01 0.02 0.03 0.04 0.03 0.03 0.03
0.04 0.04 0.04 0.03 0.04 0.04 0.05 0.05 0.05 0.04 0.02 0.02 0.03 0.03 0.03 0.02 0.02 0.01 0.02 0.01 0.00 0.00 0.00 0.00 0.00 0.00 0.00 0.00 0.00 0.00 0.01 0.01 0.01 0.01 0.01 0.01 0.01 0.02 0.03 0.04 0.04 0.04 0.04
0.03 0.03 0.04 0.03 0.03 0.03 0.03 0.06 0.06 0.05 0.03 0.03 0.03 0.04 0.03 0.02 0.02 0.02 0.01 0.01 0.01 0.00 0.00 0.01 0.01 0.01 0.01 0.01 0.01 0.01 0.00 0.00 0.00 0.01 0.01 0.01 0.01 0.01 0.02 0.03 0.03 0.03 0.04
0.02 0.02 0.03 0.03 0.03 0.03 0.03 0.04 0.06 0.06 0.04 0.02 0.03 0.05 0.06 0.04 0.02 0.02 0.01 0.01 0.01 0.01 0.01 0.01 0.01 0.01 0.01 0.01 0.01 0.01 0.01 0.01 0.00 0.00 0.00 0.01 0.01 0.01 0.01 0.02 0.02 0.03 0.03
0.02 0.02 0.03 0.03 0.03 0.03 0.03 0.04 0.05 0.08 0.08 0.06 0.03 0.03 0.06 0.07 0.05 0.03 0.02 0.01 0.01 0.01 0.01 0.01 0.01 0.01 0.01 0.01 0.01 0.01 0.01 0.01 0.01 0.01 0.00 0.00 0.01 0.01 0.01 0.01 0.02 0.03 0.03
0.02 0.02 0.02 0.02 0.03 0.04 0.04 0.04 0.04 0.05 0.08 0.09 0.06 0.04 0.04 0.08 0.07 0.05 0.05 0.04 0.03 0.02 0.02 0.02 0.02 0.01 0.00 0.01 0.01 0.01 0.01 0.01 0.01 0.01 0.01 0.01 0.01 0.01 0.01 0.01 0.01 0.02 0.03
0.01 0.01 0.01 0.01 0.02 0.07 0.06 0.04 0.04 0.04 0.06 0.07 0.06 0.05 0.04 0.04 0.06 0.05 0.05 0.05 0.05 0.05 0.05 0.05 0.04 0.02 0.01 0.01 0.01 0.01 0.01 0.01 0.01 0.01 0.01 0.01 0.01 0.01 0.01 0.01 0.01 0.01 0.02
0.00 0.00 0.00 0.00 0.00 0.03 0.07 0.05 0.03 0.03 0.04 0.05 0.06 0.05 0.05 0.06 0.05 0.05 0.04 0.05 0.05 0.06 0.06 0.07 0.07 0.06 0.04 0.03 0.02 0.01 0.00 0.01 0.01 0.00 0.00 0.00 0.01 0.01 0.01 0.01 0.01 0.02 0.02
0.00 0.00 0.00 0.00 0.00 0.00 0.02 0.05 0.05 0.03 0.03 0.04 0.05 0.05 0.04 0.05 0.07 0.07 0.04 0.02 0.03 0.04 0.04 0.05 0.06 0.08 0.06 0.04 0.03 0.02 0.00 0.00 0.00 0.00 0.00 0.00 0.00 0.01 0.01 0.01 0.01 0.02 0.02
0.00 0.00 0.00 0.00 0.00 0.00 0.00 0.02 0.04 0.04 0.04 0.04 0.04 0.05 0.05 0.03 0.04 0.05 0.06 0.03 0.02 0.02 0.02 0.03 0.04 0.05 0.05 0.05 0.04 0.03 0.01 0.00 0.00 0.00 0.00 0.00 0.00 0.01 0.01 0.02 0.02 0.02 0.02
0.00 0.00 0.00 0.00 0.00 0.00 0.00 0.00 0.01 0.02 0.03 0.03 0.03 0.04 0.03 0.04 0.03 0.02 0.03 0.03 0.02 0.01 0.01 0.01 0.02 0.04 0.05 0.04 0.04 0.03 0.02 0.01 0.00 0.00 0.00 0.00 0.00 0.01 0.01 0.02 0.02 0.02 0.02
0.00 0.00 0.00 0.00 0.00 0.00 0.00 0.00 0.00 0.01 0.02 0.02 0.01 0.02 0.01 0.02 0.02 0.02 0.02 0.01 0.01 0.01 0.01 0.01 0.00 0.02 0.05 0.05 0.04 0.03 0.02 0.02 0.02 0.01 0.00 0.00 0.01 0.01 0.01 0.01 0.02 0.03 0.03
0.00 0.00 0.00 0.00 0.00 0.00 0.00 0.00 0.00 0.00 0.00 0.00 0.01 0.01 0.00 0.00 0.01 0.01 0.01 0.01 0.01 0.01 0.01 0.01 0.01 0.00 0.01 0.04 0.05 0.04 0.04 0.03 0.02 0.02 0.01 0.01 0.01 0.01 0.01 0.02 0.03 0.03 0.04
0.00 0.00 0.00 0.00 0.00 0.00 0.00 0.00 0.00 0.00 0.00 0.00 0.00 0.00 0.00 0.00 0.00 0.01 0.00 0.01 0.01 0.01 0.01 0.01 0.01 0.01 0.00 0.01 0.03 0.04 0.03 0.02 0.02 0.02 0.01 0.01 0.01 0.01 0.01 0.01 0.02 0.03 0.03
MSLP
1017.57 1017.14 1016.85 1016.77 1016.86 1017.09 1017.36 1017.59 1017.72 1017.74 1017.66 1017.53 1017.41 1017.34 1017.36 1017.45 1017.58 1017.71 1017.80 1017.81 1017.75 1017.63 1017.49 1017.37 1017.29 1017.27 1017.30 1017.36 1017.42 1017.44 1017.43 1017.37 1017.29 1017.19 1017.11 1017.05 1017.01 1016.97 1016.94 1016.89 1016.81 1016.72 1016.62
1017.44 1017.03 1016.78 1016.73 1016.86 1017.10 1017.37 1017.61 1017.74 1017.77 1017.70 1017.60 1017.51 1017.48 1017.53 1017.64 1017.79 1017.93 1018.01 1018.01 1017.94 1017.82 1017.67 1017.55 1017.47 1017.44 1017.46 1017.50 1017.54 1017.55 1017.52 1017.47 1017.39 1017.31 1017.24 1017.19 1017.15 1017.11 1017.07 1017.00 1016.91 1016.81 1016.70
1017.30 1016.93 1016.71 1016.69 1016.84 1017.10 1017.39 1017.64 1017.79 1017.84 1017.80 1017.73 1017.67 1017.67 1017.74 1017.86 1018.00 1018.11 1018.17 1018.15 1018.06 1017.92 1017.77 1017.64 1017.56 1017.53 1017.54 1017.57 1017.59 1017.59 1017.57 1017.51 1017.45 1017.39 1017.34 1017.30 1017.26 1017.21 1017.15 1017.06 1016.96 1016.84 1016.74
1017.23 1016.89 1016.71 1016.73 1016.91 1017.18 1017.48 1017.74 1017.90 1017.96 1017.95 1017.90 1017.87 1017.88 1017.94 1018.04 1018.15 1018.23 1018.24 1018.19 1018.07 1017.92 1017.77 1017.64 1017.57 1017.54 1017.54 1017.57 1017.58 1017.58 1017.56 1017.52 1017.47 1017.43 1017.39 1017.36 1017.32 1017.26 1017.18 1017.08 1016.95 1016.83 1016.73
1017.27 1016.97 1016.84 1016.89 1017.09 1017.37 1017.67 1017.91 1018.07 1018.13 1018.12 1018.09 1018.06 1018.06 1018.10 1018.16 1018.22 1018.25 1018.22 1018.12 1017.99 1017.83 1017.69 1017.58 1017.51 1017.49 1017.49 1017.51 1017.52 1017.51 1017.50 1017.47 1017.44 1017.41 1017.39 1017.37 1017.33 1017.26 1017.16 1017.03 1016.90 1016.78 1016.70
1017.45 1017.21 1017.12 1017.20 1017.41 1017.68 1017.95 1018.16 1018.29 1018.33 1018.30 1018.25 1018.20 1018.18 1018.19 1018.21 1018.22 1018.19 1018.12 1018.00 1017.85 1017.70 1017.57 1017.47 1017.42 1017.41 1017.42 1017.42 1017.43 1017.41 1017.39 1017.37 1017.35 1017.34 1017.33 1017.31 1017.27 1017.18 1017.07 1016.94 1016.81 1016.70 1016.63
1017.76 1017.59 1017.55 1017.66 1017.86 1018.10 1018.31 1018.47 1018.53 1018.52 1018.45 1018.37 1018.30 1018.25 1018.22 1018.20 1018.17 1018.10 1017.99 1017.85 1017.70 1017.56 1017.45 1017.38 1017.34 1017.34 1017.34 1017.33 1017.32 1017.29 1017.26 1017.23 1017.22 1017.21 1017.21 1017.18 1017.13 1017.05 1016.93 1016.79 1016.67 1016.58 1016.54
1018.18 1018.07 1018.09 1018.21 1018.39 1018.57 1018.71 1018.78 1018.76 1018.69 1018.57 1018.46 1018.36 1018.29 1018.24 1018.19 1018.12 1018.02 1017.89 1017.74 1017.60 1017.47 1017.38 1017.32 1017.30 1017.29 1017.27 1017.25 1017.21 1017.15 1017.10 1017.06 1017.03 1017.03 1017.02 1016.99 1016.94 1016.84 1016.72 1016.59 1016.48 1016.41 1016.41
1018.64 1018.61 1018.67 1018.80 1018.94 1019.05 1019.10 1019.08 1018.98 1018.83 1018.68 1018.54 1018.43 1018.35 1018.29 1018.23 1018.14 1018.02 1017.88 1017.72 1017.57 1017.45 1017.36 1017.31 1017.29 1017.26 1017.23 1017.17 1017.09 1017.01 1016.92 1016.86 1016.82 1016.79 1016.77 1016.74 1016.67 1016.58 1016.45 1016.33 1016.23 1016.18 1016.20
1019.11 1019.15 1019.24 1019.36 1019.46 1019.50 1019.46 1019.34 1019.17 1018.98 1018.80 1018.66 1018.56 1018.49 1018.44 1018.37 1018.27 1018.14 1017.97 1017.80 1017.63 1017.50 1017.41 1017.34 1017.30 1017.25 1017.18 1017.09 1016.98 1016.85 1016.74 1016.64 1016.58 1016.53 1016.49 1016.44 1016.36 1016.25 1016.12 1016.00 1015.91 1015.87 1015.91
1019.55 1019.65 1019.77 1019.87 1019.92 1019.89 1019.77 1019.59 1019.37 1019.15 1018.97 1018.85 1018.78 1018.74 1018.70 1018.64 1018.53 1018.38 1018.18 1017.97 1017.78 1017.62 1017.49 1017.40 1017.32 1017.24 1017.14 1017.01 1016.86 1016.70 1016.55 1016.43 1016.33 1016.26 1016.19 1016.11 1016.01 1015.88 1015.73 1015.60 1015.50 1015.47 1015.52
1019.94 1020.09 1020.22 1020.31 1020.31 1020.22 1020.05 1019.82 1019.58 1019.37 1019.22 1019.13 1019.10 1019.10 1019.09 1019.03 1018.91 1018.72 1018.49 1018.23 1017.99 1017.78 1017.61 1017.47 1017.36 1017.24 1017.10 1016.94 1016.75 1016.56 1016.38 1016.23 1016.10 1015.99 1015.89 1015.77 1015.63 1015.47 1015.30 1015.14 1015.03 1014.98 1015.02
1020.28 1020.47 1020.61 1020.67 1020.64 1020.50 1020.30 1020.05 1019.82 1019.64 1019.54 1019.51 1019.53 1019.56 1019.57 1019.51 1019.36 1019.14 1018.86 1018.55 1018.25 1017.98 1017.76 1017.57 1017.41 1017.25 1017.08 1016.88 1016.67 1016.46 1016.25 1016.06 1015.90 1015.75 1015.60 1015.45 1015.27 1015.06 1014.86 1014.67 1014.52 1014.45 1014.47
1020.60 1020.80 1020.94 1020.98 1020.91 1020.75 1020.53 1020.30 1020.10 1019.96 1019.91 1019.94 1020.01 1020.07 1020.09 1020.02 1019.85 1019.58 1019.25 1018.89 1018.54 1018.22 1017.95 1017.71 1017.51 1017.31 1017.10 1016.88 1016.64 1016.40 1016.17 1015.95 1015.75 1015.56 1015.37 1015.16 1014.94 1014.69 1014.45 1014.22 1014.04 1013.94 1013.92
1020.90 1021.10 1021.22 1021.24 1021.15 1020.98 1020.76 1020.55 1020.39 1020.31 1020.32 1020.39 1020.49 1020.57 1020.59 1020.50 1020.30 1020.01 1019.65 1019.25 1018.86 1018.51 1018.19 1017.92 1017.68 1017.44 1017.20 1016.95 1016.68 1016.41 1016.14 1015.89 1015.65 1015.42 1015.19 1014.95 1014.68 1014.40 1014.13 1013.87 1013.67 1013.53 1013.47
1021.19 1021.37 1021.47 1021.46 1021.35 1021.18 1020.98 1020.81 1020.69 1020.66 1020.71 1020.81 1020.92 1021.00 1021.01 1020.91 1020.69 1020.39 1020.01 1019.61 1019.21 1018.84 1018.51 1018.22 1017.94 1017.67 1017.39 1017.10 1016.80 1016.49 1016.19 1015.90 1015.63 1015.37 1015.10 1014.83 1014.54 1014.25 1013.96 1013.69 1013.47 1013.31 1013.22
1021.46 1021.61 1021.67 1021.64 1021.52 1021.36 1021.19 1021.05 1020.98 1020.98 1021.05 1021.16 1021.27 1021.34 1021.32 1021.21 1020.99 1020.70 1020.34 1019.96 1019.59 1019.23 1018.91 1018.60 1018.30 1017.99 1017.67 1017.34 1016.99 1016.64 1016.30 1015.98 1015.68 1015.39 1015.11 1014.83 1014.54 1014.26 1013.98 1013.73 1013.51 1013.34 1013.23
1021.69 1021.81 1021.83 1021.78 1021.66 1021.51 1021.37 1021.28 1021.24 1021.27 1021.35 1021.45 1021.54 1021.58 1021.54 1021.42 1021.21 1020.94 1020.63 1020.30 1019.98 1019.66 1019.36 1019.05 1018.73 1018.39 1018.02 1017.63 1017.23 1016.84 1016.47 1016.12 1015.80 1015.50 1015.23 1014.96 1014.71 1014.46 1014.22 1014.00 1013.81 1013.65 1013.52
1021.86 1021.95 1021.95 1021.88 1021.77 1021.65 1021.55 1021.50 1021.49 1021.53 1021.61 1021.69 1021.74 1021.74 1021.68 1021.55 1021.37 1021.14 1020.89 1020.63 1020.38 1020.11 1019.83 1019.53 1019.20 1018.82 1018.41 1017.97 1017.52 1017.09 1016.69 1016.32 1016.00 1015.71 1015.46 1015.24 1015.03 1014.83 1014.66 1014.49 1014.34 1014.21 1014.07
1021.97 1022.03 1022.02 1021.96 1021.87 1021.79 1021.74 1021.72 1021.74 1021.79 1021.86 1021.90 1021.91 1021.87 1021.79 1021.66 1021.49 1021.31 1021.13 1020.95 1020.75 1020.54 1020.30 1020.00 1019.65 1019.25 1018.80 1018.32 1017.85 1017.39 1016.97 1016.61 1016.30 1016.04 1015.83 1015.65 1015.50 1015.37 1015.26 1015.16 1015.07 1014.96 1014.82
1022.02 1022.07 1022.07 1022.03 1021.97 1021.94 1021.93 1021.96 1022.01 1022.07 1022.12 1022.13 1022.10 1022.02 1021.91 1021.77 1021.62 1021.48 1021.35 1021.23 1021.09 1020.93 1020.71 1020.43 1020.07 1019.65 1019.18 1018.69 1018.20 1017.74 1017.33 1016.99 1016.70 1016.48 1016.31 1016.19 1016.10 1016.03 1015.99 1015.94 1015.89 1015.81 1015.68
1022.01 1022.08 1022.10 1022.09 1022.08 1022.10 1022.15 1022.22 1022.31 1022.38 1022.41 1022.40 1022.33 1022.21 1022.07 1021.92 1021.78 1021.66 1021.57 1021.48 1021.39 1021.25 1021.05 1020.78 1020.43 1020.01 1019.54 1019.06 1018.59 1018.16 1017.79 1017.48 1017.24 1017.06 1016.93 1016.85 1016.80 1016.78 1016.77 1016.76 1016.74 1016.67 1016.54
1021.97 1022.08 1022.13 1022.17 1022.21 1022.27 1022.37 1022.49 1022.61 1022.69 1022.73 1022.69 1022.60 1022.45 1022.28 1022.12 1021.97 1021.86 1021.77 1021.70 1021.62 1021.50 1021.32 1021.06 1020.73 1020.33 1019.90 1019.46 1019.04 1018.67 1018.35 1018.10 1017.90 1017.76 1017.66 1017.59 1017.56 1017.55 1017.55 1017.55 1017.53 1017.47 1017.32
1021.92 1022.07 1022.16 1022.23 1022.32 1022.43 1022.58 1022.73 1022.88 1022.99 1023.03 1022.99 1022.88 1022.72 1022.53 1022.34 1022.18 1022.06 1021.97 1021.90 1021.81 1021.70 1021.52 1021.28 1020.98 1020.63 1020.27 1019.90 1019.56 1019.26 1019.02 1018.82 1018.67 1018.55 1018.46 1018.39 1018.34 1018.31 1018.29 1018.27 1018.22 1018.14 1017.98
1021.84 1022.04 1022.17 1022.27 1022.39 1022.53 1022.71 1022.90 1023.07 1023.20 1023.26 1023.23 1023.13 1022.97 1022.78 1022.58 1022.40 1022.26 1022.15 1022.06 1021.96 1021.84 1021.68 1021.47 1021.22 1020.93 1020.64 1020.37 1020.13 1019.92 1019.76 1019.62 1019.51 1019.40 1019.30 1019.20 1019.10 1019.02 1018.95 1018.88 1018.80 1018.68 1018.49
1021.74 1021.96 1022.12 1022.24 1022.37 1022.53 1022.72 1022.93 1023.13 1023.29 1023.37 1023.38 1023.30 1023.16 1022.98 1022.78 1022.60 1022.45 1022.32 1022.20 1022.09 1021.97 1021.82 1021.64 1021.44 1021.23 1021.03 1020.86 1020.71 1020.60 1020.51 1020.42 1020.34 1020.23 1020.10 1019.96 1019.81 1019.66 1019.52 1019.39 1019.26 1019.10 1018.88
Thickness
5738 5741 5742 5741 5741 5741 5742 5742 5742 5742 5742 5742 5742 5742 5742 5741 5741 5740 5740 5739 5739 5738 5738 5737 5737 5736 5736 5735 5735 5734 5733 5732 5732 5731 5731 5730 5730 5729 5729 5728 5728 5727 5727
5737 5738 5739 5739 5739 5739 5739 5739 5739 5739 5739 5739 5739 5739 5739 5739 5738 5738 5737 5737 5737 5736 5735 5735 5734 5734 5733 5732 5732 5731 5730 5729 5728 5728 5727 5727 5727 5726 5726 5725 5725 5725 5724
5735 5735 5735 5736 5736 5736 5736 5736 5736 5736 5736 5736 5736 5736 5736 5736 5736 5735 5735 5734 5734 5734 5733 5732 5732 5731 5730 5730 5729 5728 5727 5726 5725 5725 5724 5724 5723 5723 5723 5722 5722 5722 5721
5731 5731 5731 5732 5732 5732 5732 5732 5732 5732 5733 5733 5733 5733 5733 5732 5732 5732 5732 5732 5731 5731 5730 5730 5729 5728 5727 5727 5726 5725 5724 5723 5722 5722 5721 5721 5720 5720 5720 5719 5719 5718 5717
5726 5726 5727 5728 5728 5729 5729 5729 5729 5729 5729 5729 5729 5729 5729 5729 5729 5728 5728 5728 5728 5727 5727 5726 5726 5725 5724 5724 5723 5722 5722 5721 5720 5719 5719 5718 5717 5717 5717 5716 5715 5714 5714
5720 5721 5722 5723 5724 5724 5725 5725 5725 5725 5725 5725 5726 5726 5726 5725 5725 5725 5725 5724 5724 5724 5723 5723 5722 5722 5721 5721 5720 5719 5719 5718 5717 5716 5716 5715 5714 5714 5714 5713 5712 5711 5710
5714 5715 5717 5718 5719 5720 5720 5721 5721 5721 5721 5722 5722 5722 5722 5722 5721 5721 5721 5721 5720 5720 5720 5719 5719 5718 5718 5717 5717 5716 5715 5715 5714 5713 5713 5712 5712 5711 5710 5709 5708 5707 5706
5708 5709 5711 5712 5714 5715 5716 5716 5717 5717 5717 5718 5718 5718 5718 5718 5718 5717 5717 5717 5717 5716 5716 5715 5715 5714 5714 5713 5713 5713 5712 5711 5710 5710 5709 5709 5708 5708 5707 5706 5705 5703 5702
5702 5703 5704 5706 5707 5709 5710 5711 5711 5712 5713 5713 5713 5714 5714 5714 5713 5713 5713 5713 5713 5713 5712 5712 5711 5710 5710 5709 5709 5709 5708 5707 5707 5706 5705 5705 5705 5704 5704 5703 5701 5700 5699
5694 5696 5698 5700 5701 5703 5704 5705 5706 5707 5707 5708 5708 5709 5709 5709 5709 5709 5709 5709 5709 5708 5708 5707 5707 5706 5706 5706 5705 5705 5704 5703 5703 5702 5701 5701 5701 5701 5700 5699 5698 5696 5695
5685 5688 5691 5693 5695 5697 5698 5699 5700 5701 5702 5702 5703 5704 5704 5704 5704 5704 5704 5704 5704 5704 5703 5703 5703 5702 5702 5701 5701 5700 5700 5699 5699 5698 5698 5698 5697 5697 5696 5695 5694 5692 5691
5676 5680 5683 5686 5688 5690 5692 5693 5694 5695 5696 5697 5697 5698 5699 5699 5699 5699 5699 5699 5699 5699 5698 5698 5698 5697 5697 5697 5696 5696 5695 5695 5694 5694 5694 5693 5693 5693 5692 5691 5690 5688 5687
5669 5672 5675 5678 5681 5683 5685 5686 5688 5689 5690 5691 5691 5692 5693 5693 5693 5693 5693 5693 5693 5693 5693 5692 5692 5692 5691 5691 5691 5691 5691 5690 5690 5689 5689 5689 5688 5688 5687 5687 5686 5684 5683
5662 5665 5668 5671 5674 5677 5678 5679 5681 5682 5683 5684 5685 5685 5686 5686 5686 5686 5686 5686 5686 5686 5686 5686 5685 5685 5686 5686 5685 5685 5685 5685 5684 5684 5684 5684 5684 5683 5683 5682 5681 5680 5679
5655 5657 5661 5664 5667 5669 5671 5672 5674 5675 5676 5677 5678 5679 5679 5679 5679 5679 5680 5680 5680 5680 5680 5679 5679 5679 5679 5680 5680 5680 5679 5679 5679 5679 5678 5679 5678 5678 5678 5677 5676 5675 5674
5648 5650 5653 5657 5660 5662 5663 5665 5666 5667 5669 5670 5670 5671 5672 5673 5673 5673 5673 5673 5673 5674 5673 5673 5672 5672 5672 5673 5673 5673 5673 5673 5673 5673 5673 5673 5672 5672 5672 5671 5671 5670 5669
5641 5643 5646 5649 5652 5654 5655 5657 5658 5660 5661 5662 5662 5664 5664 5665 5666 5666 5666 5666 5666 5666 5666 5666 5666 5666 5665 5666 5666 5667 5667 5667 5667 5667 5666 5666 5665 5665 5665 5664 5664 5663 5663
5634 5636 5639 5642 5644 5646 5648 5649 5650 5652 5653 5654 5655 5656 5656 5657 5658 5658 5658 5658 5658 5659 5659 5659 5658 5658 5657 5657 5658 5659 5660 5661 5660 5660 5659 5659 5658 5657 5657 5656 5656 5656 5655
5628 5630 5632 5634 5636 5638 5640 5641 5643 5644 5645 5645 5646 5647 5648 5649 5650 5650 5650 5650 5651 5651 5651 5650 5650 5649 5649 5649 5651 5652 5653 5653 5653 5652 5651 5650 5650 5649 5648 5648 5647 5647 5646
5621 5623 5625 5627 5628 5630 5632 5633 5634 5635 5636 5637 5638 5639 5640 5640 5641 5642 5642 5642 5642 5642 5642 5642 5641 5641 5641 5641 5643 5644 5645 5645 5645 5643 5643 5642 5641 5639 5639 5638 5638 5637 5637
5614 5616 5617 5619 5620 5622 5623 5624 5625 5625 5627 5628 5629 5630 5631 5631 5631 5632 5632 5633 5633 5633 5632 5633 5633 5633 5632 5632 5633 5634 5636 5637 5636 5635 5633 5632 5631 5630 5629 5628 5628 5627 5627
5608 5609 5610 5612 5613 5614 5615 5616 5617 5617 5618 5618 5619 5620 5621 5622 5622 5623 5622 5622 5623 5623 5623 5623 5623 5623 5622 5622 5621 5621 5622 5624 5625 5626 5624 5622 5621 5620 5619 5618 5617 5617 5616
5600 5602 5605 5605 5606 5607 5608 5608 5609 5609 5609 5608 5609 5609 5610 5612 5612 5612 5613 5613 5613 5613 5613 5613 5613 5613 5611 5612 5611 5610 5610 5610 5610 5613 5613 5611 5609 5608 5607 5607 5607 5606 5606
5595 5596 5598 5598 5599 5599 5600 5600 5600 5599 5598 5599 5599 5599 5600 5601 5602 5603 5603 5603 5603 5603 5603 5603 5603 5602 5602 5601 5601 5600 5599 5599 5598 5600 5601 5600 5598 5597 5596 5596 5595 5595 5595
5591 5590 5591 5591 5592 5592 5592 5592 5591 5590 5590 5590 5590 5590 5591 5591 5592 5593 5593 5593 5594 5593 5593 5593 5592 5592 5591 5591 5590 5589 5589 5588 5587 5587 5589 5588 5587 5585 5584 5583 5583 5583 5582
5584 5583 5583 5584 5584 5584 5584 5584 5584 5583 5582 5582 5582 5581 5582 5582 5582 5583 5584 5584 5584 5584 5583 5583 5582 5582 5581 5580 5579 5578 5577 5576 5575 5575 5576 5577 5576 5575 5573 5572 5571 5570 5570